Location: LDNL
(36.4545°S, 141.6685°E)
Time: 10:28:08
(UTC+10:00)

Oscar 11 - Pass Details

Date: 30 May 2022
Orbit: 613 x 622 km, 97.6° (Epoch: 29 June)

Event Time Altitude Azimuth Distance (km) Brightness Sun altitude
Rises 18:46:24 0° 191° (S) 2,927 10.5 -15.7°
Reaches altitude 10° 18:49:36 10° 216° (SW) 2,008 9.9 -16.3°
Maximum altitude 18:51:46 14° 246° (WSW) 1,764 10.1 -16.8°
Drops below altitude 10° 18:53:56 10° 276° (W) 1,992 10.9 -17.2°
Sets 18:57:06 0° 302° (WNW) 2,885 11.9 -17.8°
